Cut Bank, MT

4:08 PM MST on November 11, 2019 (GMT -0700)
Cut Bank Municipal

Weather History for KCTB - September, 2019

Change the Weather History Date:

Tuesday, September 3, 2019

  Actual Average Record
Temperature  
Mean Temperature 62 °F 58 °F  
Max Temperature 84 °F 73 °F 94 °F (1950)
Min Temperature 39 °F 44 °F 24 °F (1962)
Degree Days  
Heating Degree Days 3 7  
Month to date heating degree days 5 21  
Since 1 July heating degree days 178 215  
Cooling Degree Days 0 1  
Month to date cooling degree days 0 3  
Year to date cooling degree days 104 156  
Growing Degree Days 12 (Base 50)    
Moisture  
Dew Point 37 °F    
Average Humidity 45    
Maximum Humidity 93    
Minimum Humidity 15    
Precipitation  
Precipitation 0.00 in 0.05 in 0.53 in (1965)
Month to date precipitation 0.00 0.13  
Year to date precipitation 8.83 8.79  
Snow  
Snow - - - ()
Snow Depth 0.00 in    
Sea Level Pressure  
Sea Level Pressure 30.03 in    
Wind  
Wind Speed 3 mph ()    
Max Wind Speed 12 mph    
Max Gust Speed 15 mph    
Visibility 10.0 miles    
Events      
T = Trace of Precipitation, MM = Missing Value Source: Averaged Metar Reports

Daily Weather History Graph

Daily Weather History Graph

Search for Another Location

Airport or City:

Astronomy

Sep. 03, 2019 Rise Set
Actual Time 6:49 AM MDT 8:07 PM MDT
Civil Twilight 6:16 AM MDT 8:39 PM MDT
Nautical Twilight 5:37 AM MDT 9:19 PM MDT
Astronomical Twilight 4:55 AM MDT 10:01 PM MDT
Moon 12:10 PM MDT (9/3) 10:41 PM MDT (9/3)
Length of Visible Light 14h 23m
Length of Day
13h 18m
Waxing Crescent, 25% of the Moon is Illuminated
Sep 3
Waxing Crescent
Sep 5
First Quarter
Sep 13
Full
Sep 21
Last Quarter
Sep 28
New

Hourly Weather History & Observations

Time (MDT) Temp. Windchill Dew Point Humidity Pressure Visibility Wind Dir Wind Speed Gust Speed Precip Events Conditions
12:56 AM 53.1 °F - 39.9 °F 61% 30.09 in 10.0 mi Calm Calm - N/A   Clear
1:56 AM 52.0 °F - 39.9 °F 63% 30.09 in 10.0 mi Calm Calm - N/A   Clear
2:56 AM 50.0 °F - 39.9 °F 68% 30.09 in 10.0 mi ESE 4.6 mph - N/A   Clear
3:56 AM 44.1 °F 42.5 °F 37.0 °F 76% 30.10 in 10.0 mi NE 3.5 mph - N/A   Clear
4:56 AM 43.0 °F - 37.0 °F 80% 30.10 in 10.0 mi Calm Calm - N/A   Clear
5:56 AM 46.0 °F - 39.0 °F 76% 30.10 in 10.0 mi Calm Calm - N/A   Clear
6:56 AM 39.0 °F 36.8 °F 37.0 °F 93% 30.13 in 10.0 mi West 3.5 mph - N/A   Clear
7:56 AM 48.0 °F - 41.0 °F 77% 30.12 in 10.0 mi Calm Calm - N/A   Clear
8:56 AM 55.0 °F - 44.1 °F 67% 30.11 in 10.0 mi Calm Calm - N/A   Clear
9:56 AM 62.1 °F - 44.1 °F 52% 30.10 in 10.0 mi South 4.6 mph - N/A   Clear
10:56 AM 66.9 °F - 42.1 °F 40% 30.09 in 10.0 mi SE 8.1 mph - N/A   Clear
11:56 AM 71.1 °F - 41.0 °F 34% 30.08 in 10.0 mi SSE 5.8 mph - N/A   Clear
12:56 PM 77.0 °F - 35.1 °F 22% 30.04 in 10.0 mi WSW 5.8 mph - N/A   Clear
1:56 PM 79.0 °F - 35.1 °F 20% 30.02 in 10.0 mi Variable 5.8 mph - N/A   Clear
2:56 PM 82.0 °F - 34.0 °F 18% 30.00 in 10.0 mi SW 5.8 mph - N/A   Clear
3:56 PM 84.0 °F - 33.1 °F 16% 29.98 in 10.0 mi Variable 3.5 mph - N/A   Clear
4:56 PM 82.9 °F - 33.1 °F 17% 29.97 in 10.0 mi North 6.9 mph - N/A   Clear
5:56 PM 82.9 °F - 30.9 °F 15% 29.96 in 10.0 mi NW 6.9 mph - N/A   Clear
6:56 PM 77.0 °F - 37.9 °F 24% 29.98 in 10.0 mi West 6.9 mph - N/A   Clear
7:56 PM 73.0 °F - 39.0 °F 29% 29.95 in 10.0 mi NW 5.8 mph - N/A   Clear
8:56 PM 69.1 °F - 36.0 °F 30% 29.94 in 10.0 mi NNE 4.6 mph - N/A   Clear
9:56 PM 71.1 °F - 33.1 °F 25% 29.91 in 10.0 mi SE 5.8 mph - N/A   Clear
10:56 PM 68.0 °F - 34.0 °F 28% 29.91 in 10.0 mi SSE 10.4 mph - N/A   Clear
11:56 PM 63.0 °F - 36.0 °F 37% 29.90 in 10.0 mi SE 8.1 mph - N/A   Clear